カタログに戻る

FENGYUN 1C DEB

運用中SSO
NORAD 36247·DEBRIS·🇨🇳 China

打ち上げ May 10, 1999 から Taiyuan Satellite Launch Center

Loading…

次のパス (今後24時間)

TLE

経年Source: Space-Track

元期: Sep 4, 2026, 23:45 UTC

1 36247U 99025DVY 26247.99004953  .00000600  00000-0  19104-3 0  9991
2 36247  98.2648 254.5065 0183973 318.4948  40.2388 14.34300877740784

AllMySatでFENGYUN 1C DEBをリアルタイム追跡

Download on the App Store